User: anonymous   Login
Location: Unspecified
(0.0000°N, 0.0000°E)
Time: 19:05:49
(UTC+00:00)
Language:

INTELSAT 903 - Orbit

View from above orbital plane
View from above orbital plane
View from above satellite
View from above satellite

Ground track
Ground track

The orbit data is extracted from the following two-line orbital elements,

1 27403U 02016A   19051.86097563 -.00000246 +00000-0 +00000-0 0  9998
2 27403 001.1790 092.5585 0001752 280.4566 055.8952 01.00271313018861
Epoch (UTC): 20 February 2019 20:39:48
Eccentricity: 0.0001752
inclination: 1.1790°
perigee height: 35779 km
apogee height: 35794 km
right ascension of ascending node: 92.5585°
argument of perigee: 280.4566°
revolutions per day: 1.00271313
mean anomaly at epoch: 55.8952°
orbit number at epoch: 1886

The dashed part of the orbit path shows where the satellite is in the earth's shadow,  

DLR